Content
SEND FEEDBACK

Daily
Averages
Monthly
Summary
United States of America

ARTEMUS, KENTUCKY


Home > North America > United States > Kentucky
Elevation: 1104 feet     Latitude: 36 52N     Longitude: 083 52W

WEATHER
 
SELECT A DAY
Number of Records: 402,484;   Date Range: 5/16/05 - 7/9/14
 
SHARE

PRINT THIS DATA

[ ← Previous Day ]
WEATHER ALMANAC - FEBRUARY 13, 2013
[ Next Day → ]
[ °C ]   °F
Weather ElementAverageHighLow
Temperature41.2 °F46.4 °F (12:55 am) (4:35 pm)
Dewpoint38.5 °F44.6 °F (8:55 am) (7:00 pm)
Humidity90 %100 % (4:35 am)76 % (12:55 am)
Barometer27.99 in29.98 in (10:55 pm) (7:00 pm)
Wind Speed1.7 mph11.5 mph (4:15 pm)
Wind Gust19.6 mph (12:55 pm)
Weather ElementAverage
Visibility8.2 mi
Wind DirectionENE (80 °)

Weather ElementTotal
Precipitation0.10 in
Heating Degree Days41.8 (Base 65)
Averaged from 71 records on February 13, 2013
WEATHER CONDITIONS BREAKOUT
WIND DIRECTION BREAKOUT
WEATHER BY HOUR - FEBRUARY 13, 2013
[ °C ]   °F
Local TimeTemperatureDewpointHumidityBarometerVisibilityWind DirectionWind SpeedGust SpeedPrecipitationEventsConditions
12:35 AM44.6 °F39.2 °F81 %29.83 in10.0 miCalmOvercast
12:55 AM46.4 °F39.2 °F76 %29.83 in10.0 miCalmOvercast
1:15 AM46.4 °F39.2 °F76 %29.82 in10.0 miCalmOvercast
1:35 AM46.4 °F39.2 °F76 %29.81 in10.0 miCalmOvercast
1:55 AM44.6 °F39.2 °F81 %29.79 in10.0 miCalmOvercast
2:15 AM44.6 °F39.2 °F81 %29.79 in10.0 miCalmOvercast
2:35 AM44.6 °F39.2 °F81 %29.77 in10.0 miCalmOvercast
2:55 AM44.6 °F39.2 °F81 %29.76 in10.0 miCalmOvercast
3:15 AM44.6 °F39.2 °F81 %29.74 in10.0 miCalmOvercast
3:35 AM46.4 °F39.2 °F76 %29.74 in10.0 miCalmOvercast
3:55 AM44.6 °F41.0 °F87 %29.74 in10.0 miCalmRainRain
4:15 AM44.6 °F41.0 °F87 %29.74 in7.0 miCalmRainRain
4:35 AM42.8 °F42.8 °F100 %29.74 in7.0 miCalmRainLight Rain
4:55 AM42.8 °F42.8 °F100 %29.72 in7.0 miCalmRainLight Rain
5:15 AM42.8 °F42.8 °F100 %29.71 in3.0 miCalm0.04 inRainRain
5:35 AM42.8 °F42.8 °F100 %29.71 in7.0 miCalm0.04 inRainRain
5:55 AM42.8 °F42.8 °F100 %29.70 in5.0 miCalmRainRain
6:15 AM42.8 °F42.8 °F100 %29.69 in5.0 miCalm0.01 inRainRain
6:35 AM42.8 °F42.8 °F100 %29.69 in5.0 miCalm0.01 inRainRain
6:55 AM42.8 °F42.8 °F100 %29.69 in7.0 miCalmRainLight Rain
7:15 AM42.8 °F42.8 °F100 %29.70 in4.0 miCalmDrizzle
7:35 AM44.6 °F42.8 °F93 %29.70 in5.0 miCalmRainLight Rain
7:55 AM44.6 °F42.8 °F93 %29.70 in2.0 miCalmDrizzle
8:15 AM44.6 °F42.8 °F93 %29.69 in1.8 miCalmRainRain
8:35 AM44.6 °F42.8 °F93 %29.70 in2.0 miCalmDrizzle
8:55 AM44.6 °F44.6 °F100 %29.70 in1.8 miCalmRainLight Rain
9:15 AM44.6 °F44.6 °F100 %29.69 in1.8 miCalmRainLight Rain
9:35 AM44.6 °F44.6 °F100 %29.69 in2.0 miCalmOvercast
9:55 AM44.6 °F44.6 °F100 %29.69 in2.0 miCalmRainRain
10:15 AM44.6 °F42.8 °F93 %29.70 in3.0 miNW (320°)3.5 mphRainRain
10:35 AM42.8 °F42.8 °F100 %29.70 in2.5 miCalmRainRain
10:55 AM42.8 °F42.8 °F100 %29.69 in10.0 miEast (80°)3.5 mphRainLight Rain
11:15 AM42.8 °F42.8 °F100 %29.68 in10.0 miEast (80°)5.8 mphOvercast
11:35 AM42.8 °F42.8 °F100 %29.69 in10.0 miNE (50°)4.6 mphOvercast
11:55 AM42.8 °F42.8 °F100 %10.0 miCalmRainLight Rain
12:15 PM42.8 °F42.8 °F100 %29.69 in7.0 miCalmRainLight Rain
12:35 PM42.8 °F42.8 °F100 %10.0 miNW (320°)9.2 mphRainLight Rain
12:55 PM42.8 °F39.2 °F87 %10.0 miNNW (330°)9.2 mph19.6 mphRainLight Rain
1:15 PM42.8 °F39.2 °F87 %29.73 in10.0 miNNW (330°)4.6 mphLight Drizzle
1:35 PM42.8 °F37.4 °F81 %29.75 in10.0 miCalmRainLight Rain
1:55 PM42.8 °F37.4 °F81 %29.76 in10.0 miNNW (340°)4.6 mphLight Drizzle
2:15 PM42.8 °F37.4 °F81 %29.77 in10.0 miNorth (350°)4.6 mphLight Drizzle
2:35 PM39.2 °F37.4 °F93 %7.0 miNW (320°)6.9 mphRainLight Rain
2:55 PM39.2 °F37.4 °F93 %29.80 in10.0 miNNW (330°)6.9 mphRainLight Rain
3:15 PM39.2 °F37.4 °F93 %10.0 miNW (310°)6.9 mphLight Drizzle
3:35 PM39.2 °F37.4 °F93 %29.81 in10.0 miNW (320°)5.8 mph9.2 mphOvercast
3:55 PM39.2 °F35.6 °F87 %29.82 in10.0 miNorth (350°)8.1 mphOvercast
4:15 PM39.2 °F37.4 °F93 %29.83 in10.0 miWNW (290°)11.5 mph16.1 mphOvercast
4:35 PM0.0 °F0.0 °F29.85 in10.0 miNW (320°)8.1 mphOvercast
4:55 PM39.2 °F35.6 °F87 %29.86 in10.0 miCalmOvercast
5:15 PM39.2 °F35.6 °F87 %29.87 in10.0 miNW (310°)5.8 mphOvercast
5:35 PM39.2 °F35.6 °F87 %29.88 in10.0 miWNW (300°)3.5 mphOvercast
5:55 PM39.2 °F35.6 °F87 %29.89 in10.0 miNW (320°)3.5 mphOvercast
6:15 PM39.2 °F35.6 °F87 %29.90 in10.0 miNW (310°)6.9 mphOvercast
6:35 PM39.2 °F35.6 °F87 %29.90 in10.0 miCalmMostly Cloudy
6:55 PM39.2 °F35.6 °F87 %29.91 in10.0 miCalmOvercast
7:15 PM39.2 °F35.6 °F87 %29.92 in10.0 miCalmMostly Cloudy
7:35 PM39.2 °F33.8 °F81 %29.93 in10.0 miCalmMostly Cloudy
7:55 PM39.2 °F35.6 °F87 %29.93 in10.0 miCalmOvercast
8:15 PM39.2 °F33.8 °F81 %29.93 in10.0 miCalmOvercast
8:35 PM39.2 °F35.6 °F87 %29.94 in10.0 miCalmOvercast
8:55 PM39.2 °F35.6 °F87 %29.94 in10.0 miCalmOvercast
9:15 PM39.2 °F33.8 °F81 %29.95 in10.0 miCalmOvercast
9:35 PM39.2 °F33.8 °F81 %29.95 in10.0 miCalmOvercast
9:55 PM37.4 °F35.6 °F93 %29.96 in10.0 miCalmOvercast
10:15 PM37.4 °F35.6 °F93 %29.96 in10.0 miCalmMostly Cloudy
10:35 PM37.4 °F35.6 °F93 %29.97 in10.0 miCalmOvercast
10:55 PM37.4 °F35.6 °F93 %29.98 in10.0 miCalmOvercast
11:15 PM37.4 °F32.0 °F81 %29.98 in10.0 miCalmOvercast
11:35 PM37.4 °F32.0 °F81 %29.98 in10.0 miCalmOvercast
11:55 PM37.4 °F33.8 °F87 %29.98 in10.0 miCalm
Hourly data recorded from K1A6, located miles away from Artemus, Kentucky







STORIES FROM OUR PARTNERS